Regional Weather Roundup
Issued by NWS Charleston, SC

Current Version | Previous Version | Graphics & Text | Print | Product List | Glossary On
Versions: 1 2 3 4 5 6 7 8 9 10 11 12 13 14 15 16 17 18 19 20 21 22 23 24 25 26 27 28 29 30 31 32 33 34 35 36 37 38 39 40 41 42 43 44 45 46 47 48 49 50
383
ASUS42 KCHS 192027
RWRCHS

REGIONAL WEATHER ROUNDUP
NATIONAL WEATHER SERVICE CHARLESTON SC
300 PM EST SUN FEB 19 2017

NOTE: "FAIR" INDICATES FEW OR NO CLOUDS BELOW 12,000 FEET WITH NO
SIGNIFICANT WEATHER AND/OR OBSTRUCTIONS TO VISIBILITY.

NOT ALL STATIONS ARE QUALITY CONTROLLED. USE DATA WITH CAUTION...
ESPECIALLY DEWPOINT OBSERVATIONS.

SCZ027-030-031-034>040-042>050-192100-
...SOUTHEAST SOUTH CAROLINA...

CITY           SKY/WX    TMP DP  RH WIND       PRES   REMARKS
N CHARLESTON   MOSUNNY   76  48  37 N15       29.98S
WATERFRONT PRK   N/A     73  50  44 NW7       29.96F
MOUNT PLEASANT FAIR      73  52  46 NW10      29.99R
JOHNS ISLAND   FAIR      75  50  41 VRB7      29.98S
PINOPOLIS        N/A     64  54  68 N6        29.91S
MONCKS CORNER  FAIR      70  45  40 N9        30.00R
SUMMERVILLE    FAIR      73  48  40 N8        30.00S
BEAUFORT MCAS  SUNNY     76  49  38 NW10      30.00S
BEAUFORT ARPT  FAIR      73  48  40 NW7       29.99S
HILTON HEAD IS MOSUNNY   77  52  41 N8        30.01S
WALTERBORO     PTCLDY    73  46  38 NW7       30.00S
ALLENDALE      FAIR      75  46  35 VRB7      29.99S

...SOUTHERN MIDLANDS AND PEE DEE...

CITY           SKY/WX    TMP DP  RH WIND       PRES   REMARKS
GEORGETOWN     FAIR      72  45  37 NW10      29.98S
KINGSTREE      FAIR      70  45  40 W10       30.00R
ORANGEBURG     MOSUNNY   73  47  39 NW10      30.01S
BARNWELL       FAIR      73  50  43 NW8       30.00F
AIKEN          MOCLDY    72  48  43 NW8       30.04F
MANNING        FAIR      70  46  43 MISG      30.00S
COLUMBIA       PTSUNNY   72  48  42 N5        30.01S
SUMTER         MOSUNNY   72  46  39 NW14      29.99R
FLORENCE       SUNNY     72  47  40 N16       29.99S
MYRTLE BEACH   SUNNY     72  48  43 NW12      29.97R
N MYRTLE BEACH SUNNY     72  47  40 VRB7G17   29.95S

$$

GAZ063-065-086>088-099>101-113>116-118-119-134>141-150-192100-
...SOUTHEAST GEORGIA...

CITY           SKY/WX    TMP DP  RH WIND       PRES   REMARKS
SAVANNAH ARPT  MOSUNNY   76  49  38 NW10      30.00F
HUNTER AAF     PTSUNNY   77  56  48 N12       29.98S
FORT STEWART   MOSUNNY   75  51  44 W10G17    29.99S
STATESBORO     MOSUNNY   75  54  47 N8        30.01S
SYLVANIA       PTCLDY   N/A N/A N/A NW10      30.01S
CLAXTON        FAIR      74  55  50 W6        30.01S

...CSRA...CENTRAL AND FAR SOUTHEAST GEORGIA...

CITY           SKY/WX    TMP DP  RH WIND       PRES   REMARKS
THOMSON        SUNNY     74  53  49 NW5       30.05S
AUGUSTA-BUSH   MOSUNNY   76  49  38 N9        30.00S
AUGUSTA-DANIEL MOSUNNY   73  47  39 VRB5      30.01F
SWAINSBORO     FAIR      73  52  46 NW7       30.03R
VIDALIA        MOSUNNY   77  55  47 N7        30.02S
EASTMAN        FAIR      75  38  26 N5        30.05S
HAZLEHURST     FAIR      78  54  42 NW5       30.01S
ALMA           PTSUNNY   77  55  46 NW9       30.02S
WAYCROSS       CLOUDY    81  58  44 NW8       30.02S
JESUP          CLOUDY    77  50  38 NW5       30.02S
BAXLEY         PTSUNNY   75  59  57 NW8       30.01F
BRUNSWICK      MOSUNNY   77  59  53 NW8       30.03R
SAINT SIMONS   SUNNY     76  53  44 W6        30.01F

$$

SCZ027-028-034-036>038-045-046-048>050-GAZ119-141-192100-
...LAKE AND SUPPLEMENTAL COASTAL OBSERVATIONS...

STATION/POSITION TIME  TEMP    WIND        PRES    WAVE   SWELL
                       AIR SEA DIR/SP/G            HT/PER HT/PER/DIR
                 (UTC) (F)     (DEG/KT/KT) (MB)    (FT/S) (FT/S/D)
WINYAH BAY       1930   71     310/  5     1014.0F
LAKE MURRAY      1950   64     130/  2/  3 1015.9F
ACE BASIN NERRS  1945   75     320/  5     1015.0S
FORT PULASKI     2000   71 60  300/ 11/ 14 1016.1
SAPELO ISLAND    2000   76     300/  8     1016.0

$$

ANZ835-935-AMZ111-154-330-350-352-354-370-450-454-472-192100-
...C-MAN AND BUOY OBSERVATIONS...

STATION/POSITION TIME  TEMP    WIND        PRES    WAVE   SWELL
                       AIR SEA DIR/SP/G            HT/PER HT/PER/DIR
                 (UTC) (F)     (DEG/KT/KT) (MB)    (FT/S) (FT/S/D)
BUOY 41004       1950   64 69  250/ 12/ 14 1014.9F   2/ 6   2/150/ 6
BUOY 41008       1950   63 63  170/  6/  6 1016.2F   1/ 5
FOLLY BEACH CMAN 2000   74     330/  7/ 11 1015.9F
CAPERS NEARSHORE 1908   61 60  210/  8/ 10 1015.0F
FRIPP NEARSHORE  2008   67 61  290/  6/  8 1015.5S


STATION/POSITION TIME  TEMP    WIND        PRES    WAVE   SWELL
                       AIR SEA DIR/SP/G            HT/PER HT/PER/DIR
                 (UTC) (F)     (DEG/KT/KT) (MB)    (FT/S) (FT/S/D)
5E ST. MARYS GA  2000      65                N/A     1
FRYING PAN BUOY  2010   61 65  260/ 14/ 16 1013.9
BUOY 41025       1950   59 67  310/ 10/ 12 1012.7R   2/ 7   2/160/ 7
CAPE LOOKOUT NC  2000   64     260/  9/ 12 1012.7R
BUOY 41002       1950   66 71  220/ 16/ 19 1011.2F   5/ 6   2/190/ 9
BUOY 41010       NOT AVBL
ST AUGUSTINE FL  2000   65 67   70/  9/ 10 1018.2R


$$




USA.gov is the U.S. government's official web portal to all federal, state and local government web resources and services.